When you browse on this site, cookies collect data to enhance your experience and personalize the content and advertising you see.
Visit our Privacy Policy to learn more. By continuing to use the site, you agree to this use of cookies and data.
  • In Hungary
  • List of Countries
  • For 7 days
  • Water Temperature
  • Satellite Maps
  • Weather Map
  • News
  • Weather Widgets
  • user-avatar
    Login

    Hourly Weather Rangpur

    Today, 14 December, Friday

    Time Temperature Precipitation Wind Pressure Humidity
    00:00 +21°C° 0 mm 2 mps 760 mmHg 54%
    01:00 +20°C° 0 mm 2 mps 760 mmHg 53%
    02:00 +20°C° 0 mm 2 mps 759 mmHg 52%
    03:00 +19°C° 0 mm 2 mps 759 mmHg 51%
    04:00 +19°C° 0 mm 2 mps 759 mmHg 51%
    05:00 +19°C° 0 mm 2 mps 759 mmHg 50%
    06:00 +18°C° 0 mm 2 mps 759 mmHg 49%
    07:00 +20°C° 0 mm 2 mps 759 mmHg 46%
    08:00 +21°C° 0 mm 2 mps 760 mmHg 42%
    09:00 +23°C° 0 mm 2 mps 760 mmHg 39%
    10:00 +25°C° 0 mm 2 mps 760 mmHg 36%
    11:00 +26°C° 0 mm 2 mps 760 mmHg 33%
    12:00 +29°C° 0 mm 2 mps 760 mmHg 31%
    13:00 +29°C° 0 mm 2 mps 759 mmHg 30%
    14:00 +29°C° 0 mm 2 mps 759 mmHg 30%
    15:00 +29°C° 0 mm 2 mps 758 mmHg 30%
    16:00 +28°C° 0 mm 2 mps 758 mmHg 33%
    17:00 +27°C° 0 mm 2 mps 759 mmHg 35%
    18:00 +25°C° 0 mm 2 mps 759 mmHg 38%
    19:00 +24°C° 0 mm 1 mps 759 mmHg 39%
    20:00 +24°C° 0 mm 1 mps 760 mmHg 41%
    21:00 +23°C° 0 mm 1 mps 760 mmHg 42%
    22:00 +21°C° 0 mm 2 mps 761 mmHg 42%
    23:00 +21°C° 0 mm 2 mps 761 mmHg 43%

    Tomorrow, 15 December, Saturday

    Time Temperature Precipitation Wind Pressure Humidity
    00:00 +20°C° 0 mm 2 mps 761 mmHg 44%
    01:00 +20°C° 0 mm 2 mps 761 mmHg 45%
    02:00 +19°C° 0 mm 2 mps 760 mmHg 46%
    03:00 +18°C° 0 mm 2 mps 760 mmHg 48%
    04:00 +18°C° 0 mm 2 mps 760 mmHg 50%
    05:00 +18°C° 0 mm 2 mps 760 mmHg 52%
    06:00 +17°C° 0 mm 2 mps 760 mmHg 54%
    07:00 +18°C° 0 mm 2 mps 761 mmHg 52%
    08:00 +20°C° 0 mm 2 mps 761 mmHg 49%
    09:00 +21°C° 0 mm 3 mps 762 mmHg 47%
    10:00 +24°C° 0 mm 3 mps 761 mmHg 43%
    11:00 +25°C° 0 mm 3 mps 761 mmHg 39%
    12:00 +27°C° 0 mm 3 mps 761 mmHg 34%
    13:00 +27°C° 0 mm 3 mps 760 mmHg 33%
    14:00 +28°C° 0 mm 2 mps 760 mmHg 32%
    15:00 +28°C° 0 mm 2 mps 759 mmHg 31%
    16:00 +27°C° 0 mm 2 mps 759 mmHg 34%
    17:00 +26°C° 0 mm 2 mps 759 mmHg 38%
    18:00 +24°C° 0 mm 2 mps 759 mmHg 41%
    19:00 +24°C° 0 mm 2 mps 760 mmHg 43%
    20:00 +23°C° 0 mm 2 mps 761 mmHg 45%
    21:00 +23°C° 0 mm 2 mps 761 mmHg 46%
    22:00 +23°C° 0 mm 2 mps 761 mmHg 47%
    23:00 +21°C° 0 mm 2 mps 761 mmHg 47%

    Day after tomorrow, 16 December, Sunday

    Time Temperature Precipitation Wind Pressure Humidity
    00:00 +21°C° 0 mm 2 mps 761 mmHg 47%
    01:00 +20°C° 0 mm 2 mps 761 mmHg 47%
    02:00 +20°C° 0 mm 2 mps 761 mmHg 47%
    03:00 +19°C° 0 mm 2 mps 761 mmHg 47%
    04:00 +19°C° 0 mm 2 mps 761 mmHg 47%
    05:00 +19°C° 0 mm 3 mps 761 mmHg 46%
    06:00 +19°C° 0 mm 3 mps 761 mmHg 45%
    07:00 +19°C° 0 mm 3 mps 761 mmHg 44%
    08:00 +20°C° 0 mm 4 mps 762 mmHg 43%
    09:00 +20°C° 0 mm 4 mps 762 mmHg 42%
    10:00 +21°C° 0 mm 4 mps 762 mmHg 41%
    11:00 +21°C° 0 mm 4 mps 762 mmHg 41%
    12:00 +22°C° 0 mm 4 mps 761 mmHg 40%
    13:00 +22°C° 0 mm 3 mps 761 mmHg 41%
    14:00 +23°C° 0 mm 2 mps 760 mmHg 42%
    15:00 +23°C° 0 mm 2 mps 760 mmHg 42%
    16:00 +23°C° 0 mm 2 mps 760 mmHg 44%
    17:00 +21°C° 0 mm 2 mps 760 mmHg 45%
    18:00 +21°C° 0 mm 2 mps 760 mmHg 46%
    19:00 +20°C° 0 mm 2 mps 761 mmHg 46%
    20:00 +21°C° 0 mm 1 mps 761 mmHg 47%
    21:00 +21°C° 0 mm 1 mps 761 mmHg 47%
    22:00 +21°C° 0 mm 1 mps 761 mmHg 47%
    23:00 +21°C° 0 mm 1 mps 761 mmHg 47%

    17 December, Monday

    Time Temperature Precipitation Wind Pressure Humidity
    00:00 +21°C° 0 mm 1 mps 761 mmHg 48%
    01:00 +20°C° 0 mm 2 mps 761 mmHg 47%
    02:00 +20°C° 0 mm 2 mps 760 mmHg 46%
    03:00 +20°C° 0 mm 2 mps 760 mmHg 46%
    04:00 +19°C° 0 mm 2 mps 760 mmHg 46%
    05:00 +19°C° 0 mm 2 mps 760 mmHg 46%
    06:00 +19°C° 0 mm 2 mps 760 mmHg 47%
    07:00 +20°C° 0 mm 2 mps 761 mmHg 47%
    08:00 +20°C° 0 mm 2 mps 761 mmHg 47%
    09:00 +20°C° 0 mm 2 mps 762 mmHg 48%
    10:00 +20°C° 0 mm 3 mps 762 mmHg 47%
    11:00 +21°C° 0 mm 3 mps 761 mmHg 47%
    12:00 +21°C° 0 mm 4 mps 761 mmHg 46%
    13:00 +21°C° 0 mm 3 mps 760 mmHg 47%
    14:00 +21°C° 0 mm 3 mps 760 mmHg 48%
    15:00 +21°C° 0 mm 2 mps 759 mmHg 49%
    16:00 +21°C° 0.1 mm 2 mps 759 mmHg 49%
    17:00 +21°C° 0.1 mm 2 mps 759 mmHg 49%
    18:00 +20°C° 0.1 mm 2 mps 759 mmHg 49%
    19:00 +20°C° 0 mm 2 mps 760 mmHg 50%
    20:00 +20°C° 0 mm 2 mps 760 mmHg 50%
    21:00 +20°C° 0 mm 2 mps 761 mmHg 50%
    22:00 +19°C° 0.1 mm 2 mps 761 mmHg 53%
    23:00 +19°C° 0.1 mm 3 mps 760 mmHg 56%

    18 December, Tuesday

    Time Temperature Precipitation Wind Pressure Humidity
    00:00 +19°C° 0.1 mm 3 mps 760 mmHg 58%
    01:00 +19°C° 0.1 mm 3 mps 760 mmHg 59%
    02:00 +19°C° 0.1 mm 3 mps 759 mmHg 60%
    03:00 +19°C° 0.1 mm 4 mps 759 mmHg 61%
    04:00 +18°C° 0.4 mm 4 mps 759 mmHg 64%
    05:00 +18°C° 0.4 mm 4 mps 759 mmHg 67%
    06:00 +18°C° 0.4 mm 4 mps 759 mmHg 70%
    07:00 +18°C° 0.6 mm 4 mps 760 mmHg 72%
    08:00 +18°C° 0.6 mm 4 mps 760 mmHg 74%
    09:00 +18°C° 0.6 mm 4 mps 761 mmHg 77%
    10:00 +18°C° 0.2 mm 4 mps 760 mmHg 74%
    11:00 +19°C° 0.2 mm 5 mps 760 mmHg 71%
    12:00 +20°C° 0.2 mm 5 mps 760 mmHg 68%
    13:00 +20°C° 0 mm 5 mps 759 mmHg 69%
    14:00 +20°C° 0 mm 4 mps 758 mmHg 70%
    15:00 +19°C° 0 mm 4 mps 758 mmHg 71%
    16:00 +19°C° 0 mm 3 mps 758 mmHg 72%
    17:00 +19°C° 0 mm 3 mps 758 mmHg 74%
    18:00 +18°C° 0 mm 2 mps 758 mmHg 75%
    19:00 +18°C° 0 mm 3 mps 758 mmHg 76%
    20:00 +18°C° 0 mm 3 mps 759 mmHg 76%
    21:00 +18°C° 0 mm 3 mps 759 mmHg 77%
    22:00 +18°C° 0 mm 3 mps 759 mmHg 78%
    23:00 +17°C° 0 mm 2 mps 759 mmHg 80%

    19 December, Wednesday

    Time Temperature Precipitation Wind Pressure Humidity
    00:00 +17°C° 0 mm 2 mps 759 mmHg 82%
    01:00 +17°C° 0 mm 2 mps 758 mmHg 83%
    02:00 +16°C° 0 mm 2 mps 758 mmHg 85%
    03:00 +16°C° 0 mm 2 mps 758 mmHg 86%
    04:00 +15°C° 0 mm 2 mps 758 mmHg 86%
    05:00 +15°C° 0 mm 2 mps 758 mmHg 86%
    06:00 +15°C° 0 mm 2 mps 758 mmHg 86%
    07:00 +16°C° 0 mm 2 mps 758 mmHg 80%
    08:00 +17°C° 0 mm 2 mps 759 mmHg 75%
    09:00 +18°C° 0 mm 2 mps 760 mmHg 69%
    10:00 +19°C° 0 mm 2 mps 759 mmHg 61%
    11:00 +21°C° 0 mm 2 mps 759 mmHg 54%
    12:00 +23°C° 0 mm 2 mps 759 mmHg 47%
    13:00 +24°C° 0 mm 2 mps 758 mmHg 44%
    14:00 +25°C° 0 mm 2 mps 757 mmHg 40%
    15:00 +25°C° 0 mm 2 mps 757 mmHg 37%
    16:00 +24°C° 0 mm 2 mps 757 mmHg 40%
    17:00 +23°C° 0 mm 1 mps 757 mmHg 42%
    18:00 +22°C° 0 mm 1 mps 758 mmHg 45%
    19:00 +21°C° 0 mm 1 mps 758 mmHg 47%
    20:00 +21°C° 0 mm 1 mps 759 mmHg 48%
    21:00 +20°C° 0 mm 1 mps 759 mmHg 50%
    22:00 +20°C° 0 mm 1 mps 759 mmHg 52%
    23:00 +19°C° 0 mm 1 mps 759 mmHg 54%
    Show more